Theta_e
309 309 309 309 309 310 311 310 307 306 306 305 305 305 305 305 306 310 312 313 313 318 323 322 323 328 337 350 350 348 358 358 352 350 350 348 351 348 346 346 345 347 344 345 348
310 310 309 309 308 309 309 310 310 310 307 304 305 305 305 306 311 315 313 314 315 323 324 322 328 337 348 351 352 352 358 358 354 354 349 347 349 349 347 347 350 350 347 347 347
310 310 310 309 309 309 309 309 309 311 310 309 305 305 305 309 319 319 321 313 319 318 320 329 333 341 348 351 353 352 356 353 353 351 350 348 348 346 347 348 349 349 350 347 346
310 310 310 310 309 309 309 309 310 311 311 311 308 305 307 314 324 320 320 313 314 315 322 333 339 345 350 353 352 357 353 352 351 349 352 351 349 348 347 347 345 346 347 346 347
309 310 310 310 309 309 309 309 310 311 311 311 307 308 312 313 315 319 322 314 314 316 322 336 344 342 347 348 353 356 353 352 350 350 351 351 352 347 347 347 345 346 347 347 347
309 309 309 309 309 309 309 309 310 310 312 312 308 310 316 318 321 322 318 317 317 316 315 334 340 339 335 344 355 352 352 351 350 351 350 353 353 348 348 347 347 348 347 346 346
309 309 309 309 309 309 309 311 311 310 313 312 309 314 314 316 322 319 316 317 317 316 315 321 327 330 328 354 352 352 355 352 352 352 352 351 356 353 349 347 349 348 347 346 345
309 309 309 311 311 311 312 312 311 310 314 310 311 318 319 313 317 321 320 318 318 318 313 314 325 325 334 348 350 353 351 360 349 352 350 353 358 355 349 348 349 348 348 347 346
309 310 312 313 313 313 312 312 316 312 313 313 319 318 322 320 322 321 323 313 314 314 314 316 319 325 347 349 351 354 356 357 354 348 353 355 356 353 349 348 349 349 348 348 347
310 311 313 313 311 311 311 319 320 320 319 320 320 322 320 323 319 319 321 312 312 313 316 319 321 325 337 340 348 352 357 352 354 349 353 355 356 353 350 349 350 349 348 348 347
310 312 314 312 309 311 311 313 318 318 320 321 320 320 321 322 317 319 320 319 316 317 322 321 329 331 328 333 331 343 353 352 349 348 352 355 357 354 351 349 350 349 349 349 348
311 313 314 309 310 314 315 317 316 316 320 316 319 321 321 322 320 318 319 322 321 322 323 327 331 326 323 325 341 348 355 355 353 349 351 355 355 354 351 350 349 350 349 349 348
312 315 312 312 313 316 316 315 315 315 320 320 320 323 323 323 321 321 320 322 323 323 324 332 325 322 327 333 345 350 351 355 355 354 351 354 356 354 353 351 348 346 346 346 347
312 316 311 316 316 313 315 315 313 314 324 324 321 322 320 318 320 319 320 320 321 324 323 325 321 329 334 334 345 347 347 350 354 355 359 353 362 355 355 354 352 347 344 345 345
314 316 311 310 311 313 316 314 315 315 324 325 324 317 317 320 320 320 317 320 322 322 322 325 320 329 334 333 345 347 347 350 350 351 354 356 359 355 353 357 355 351 347 343 344
314 317 313 313 314 316 316 316 315 325 326 325 324 320 321 320 320 320 321 319 319 320 320 322 319 320 325 342 343 347 348 348 348 350 357 351 356 352 356 357 353 351 348 346 343
314 316 315 315 316 315 316 319 324 325 323 324 323 319 321 323 321 322 322 322 322 323 323 322 322 337 336 342 346 345 348 353 356 356 355 350 354 350 347 348 351 351 349 347 344
314 316 317 316 316 316 318 322 325 322 323 321 322 322 325 323 322 321 322 323 320 321 322 323 331 342 342 339 342 344 337 345 352 356 352 353 356 351 346 343 345 349 348 347 346
316 318 317 318 317 317 322 323 321 320 319 321 323 325 325 323 323 323 322 322 322 321 324 324 326 339 342 344 343 345 343 340 344 344 346 347 350 348 346 346 347 347 348 346 346
317 316 317 318 318 318 325 324 326 322 317 322 325 324 326 324 325 326 327 326 325 321 319 324 328 329 343 343 339 344 341 347 344 348 346 343 349 353 355 354 348 348 348 346 345
314 323 318 318 317 323 326 325 324 322 318 322 324 323 323 324 325 326 327 325 325 323 322 324 327 329 340 345 345 344 345 339 338 341 343 343 342 351 354 353 351 345 346 347 345
313 325 318 318 324 318 325 323 319 320 318 320 320 321 324 324 327 326 327 326 323 324 323 323 326 330 329 325 324 335 338 341 341 338 339 339 338 347 349 349 349 347 345 343 344
318 319 318 317 325 325 320 319 320 320 318 320 319 322 322 325 328 326 324 323 321 323 323 323 328 333 332 329 326 331 330 325 323 325 333 332 334 348 348 348 348 350 348 345 346
318 323 324 320 315 322 322 321 320 316 316 315 315 317 319 324 323 324 323 322 319 326 324 325 328 331 331 332 328 331 336 330 325 329 330 327 341 352 350 349 347 346 348 347 348
318 322 321 329 326 326 323 318 320 318 316 315 317 316 320 324 324 324 322 320 320 325 325 323 328 327 327 329 327 339 342 345 341 343 332 334 347 351 348 347 345 343 345 347 349
325 329 326 328 325 326 315 318 318 317 317 317 318 319 320 322 324 324 321 320 321 324 327 326 329 329 326 327 329 339 337 338 346 346 346 347 348 344 343 343 343 339 339 341 341
311 315 325 326 327 325 325 326 318 318 317 316 317 319 319 320 320 317 319 321 323 326 327 329 329 329 326 327 330 334 334 334 342 345 346 350 347 345 344 340 338 338 336 337 336
Wind_Speed
14 15 15 15 14 13 12 11 10 9 8 8 7 7 7 10 10 5 5 3 5 8 10 10 4 4 3 2 1 1 2 6 5 8 6 8 7 4 5 12 5 2 10 13 20
13 14 15 16 15 14 13 12 12 10 9 8 7 6 8 11 7 6 4 5 10 14 9 10 7 5 2 1 1 3 3 4 4 2 7 8 11 5 6 11 5 11 15 19 18
12 13 14 15 15 15 14 13 12 11 8 8 7 7 9 8 2 2 5 10 14 10 8 4 9 1 2 1 2 2 3 6 5 5 6 9 9 4 11 8 6 20 18 18 18
11 12 13 14 14 14 14 13 13 11 8 8 7 7 7 3 4 3 6 14 12 8 8 11 5 2 1 2 2 3 5 4 3 4 5 6 2 11 7 2 12 17 20 19 16
12 13 13 14 15 15 14 14 13 10 7 8 7 6 3 1 3 10 2 12 11 10 5 6 6 1 2 1 3 3 4 6 3 5 7 2 3 5 9 10 17 18 18 16 15
13 13 14 15 15 15 15 15 13 9 6 6 5 4 1 4 5 6 13 14 13 6 3 4 4 0 3 4 3 4 8 8 7 6 6 4 2 8 8 17 17 19 17 16 15
14 15 16 16 17 17 16 16 13 7 5 5 4 4 1 4 5 10 12 8 8 4 3 3 6 3 1 5 5 9 5 6 8 6 4 6 6 9 15 19 18 18 16 14 15
15 15 16 17 18 18 16 14 11 3 1 2 3 2 1 1 2 3 7 4 7 5 4 3 3 4 1 8 4 3 3 3 5 5 4 6 11 7 17 19 19 17 15 14 15
17 17 18 19 18 15 13 9 5 3 3 3 3 2 4 1 1 4 6 4 6 5 4 6 0 3 4 4 3 2 3 3 4 2 3 6 4 1 17 19 18 17 15 14 13
18 19 20 19 15 11 9 5 7 4 3 2 1 1 1 2 3 7 8 9 4 6 6 3 2 2 1 4 2 3 4 2 3 3 2 2 6 4 16 13 17 17 14 13 14
20 22 19 14 9 9 5 2 1 1 0 2 5 3 3 4 3 3 5 5 3 2 4 2 3 5 7 7 2 4 4 6 3 3 4 3 4 10 15 15 15 15 14 15 16
23 21 14 8 5 7 7 3 3 2 4 0 4 5 6 1 4 4 8 3 1 6 6 4 4 4 2 4 4 4 6 5 4 6 1 2 2 6 6 12 15 17 17 17 15
26 17 10 6 5 5 5 3 3 5 1 3 3 3 1 4 3 7 9 4 3 3 4 7 2 3 5 4 6 3 2 2 2 7 2 4 3 4 3 5 8 16 18 18 17
24 14 7 4 4 2 1 8 12 7 2 6 2 2 3 1 3 2 9 2 2 4 4 2 2 5 6 5 5 5 4 9 9 7 1 1 3 6 10 11 9 13 16 18 18
20 12 4 2 1 1 2 15 4 2 3 7 1 1 1 0 3 3 3 2 3 6 4 3 5 5 5 5 8 1 6 9 7 3 3 5 3 2 10 18 17 15 16 18 19
16 9 3 1 2 0 8 4 1 1 3 2 2 2 0 2 1 2 1 3 1 3 1 4 1 3 3 3 7 13 8 5 4 2 3 6 6 4 9 27 23 18 17 17 19
15 8 3 2 0 4 8 1 1 3 2 4 2 3 2 3 3 2 3 3 1 2 1 2 2 1 5 8 10 5 7 2 3 4 1 6 6 9 10 10 26 26 19 19 18
16 9 2 4 6 5 2 1 3 2 2 1 2 1 3 5 3 2 4 2 3 3 3 3 5 9 7 4 7 13 11 3 3 3 2 4 5 1 9 6 19 25 22 21 19
13 3 2 5 2 2 0 3 1 2 2 2 1 4 3 3 2 2 2 1 2 5 3 3 1 4 7 5 8 6 9 2 0 0 3 2 4 5 14 11 1 18 16 19 20
5 2 4 3 3 1 1 0 2 3 3 1 2 1 2 5 0 1 1 1 1 2 4 1 2 2 6 7 5 3 8 4 4 3 2 4 3 4 15 14 7 9 17 19 16
3 2 8 2 4 2 2 1 3 3 3 1 2 2 2 1 2 2 2 2 6 3 2 2 2 3 6 6 7 4 4 2 4 3 2 3 3 5 8 10 9 9 14 17 16
4 2 2 4 1 1 1 2 3 2 2 2 3 2 2 2 2 1 1 1 7 2 3 2 1 1 2 4 4 3 3 8 6 2 1 3 1 4 4 6 9 3 8 13 15
2 2 2 1 1 0 2 3 3 2 1 2 2 2 2 2 0 1 2 3 7 1 2 1 1 2 4 2 3 1 2 2 0 0 8 6 1 4 5 7 8 7 7 5 8
2 1 1 2 1 2 0 2 2 1 2 2 3 2 2 1 2 1 2 2 6 4 5 1 1 2 4 2 1 1 3 2 3 4 6 7 2 1 6 8 9 9 7 1 7
2 1 3 2 2 1 2 1 3 4 1 0 2 1 3 3 1 2 1 3 0 8 2 1 0 2 0 5 1 2 3 5 1 3 4 2 4 1 5 5 8 9 9 9 7
2 2 1 1 1 3 3 4 6 4 6 4 4 4 3 3 4 3 1 1 1 3 3 2 1 1 3 3 7 5 5 5 4 3 2 1 3 2 3 5 6 10 9 11 10
3 1 2 1 2 3 3 2 2 4 2 3 8 5 3 2 3 3 4 5 3 3 2 2 1 1 4 4 6 10 6 2 3 4 3 7 2 5 2 5 7 8 9 9 7
Wind_Direction
27 26 22 19 16 11 9 3 1 356 346 345 345 335 323 317 319 296 243 203 173 165 150 145 130 129 106 99 90 146 88 136 119 160 136 143 119 62 113 137 102 75 144 135 147
20 23 23 20 17 14 10 5 1 356 358 358 356 339 330 328 323 258 275 186 154 145 141 151 147 147 94 72 69 44 64 72 1 59 132 136 129 123 141 148 90 105 110 132 148
12 11 13 14 12 9 7 2 357 351 355 356 355 343 336 336 270 64 360 172 155 142 144 144 142 92 70 30 53 80 87 140 49 70 109 135 133 94 149 181 171 150 143 149 157
2 3 2 2 3 1 357 357 353 351 352 355 351 348 342 351 130 15 342 171 153 151 129 128 137 113 79 45 36 85 88 105 147 23 87 110 124 135 164 258 156 153 153 154 165
356 355 353 352 350 349 347 345 344 348 353 359 355 359 33 209 2 332 17 157 157 147 128 126 136 125 68 11 161 94 125 80 88 51 72 25 139 144 206 125 143 147 156 164 168
355 351 348 343 340 337 337 334 335 338 343 356 4 6 324 90 338 37 132 131 137 124 123 140 126 77 52 67 1 88 100 102 50 33 41 19 139 175 157 143 151 156 168 175 176
355 349 343 338 334 333 335 328 325 318 335 353 13 17 268 76 86 102 130 132 145 120 144 124 112 113 19 119 120 135 79 82 41 25 347 336 186 204 156 160 162 171 175 177 187
352 344 338 334 330 332 333 328 325 294 334 18 19 24 336 128 126 122 116 109 160 155 85 168 119 83 58 126 87 97 80 117 351 137 284 297 212 167 165 167 170 177 179 187 192
347 342 337 332 330 337 334 347 22 102 90 48 38 345 84 297 254 172 160 107 135 138 145 114 45 54 148 136 123 80 111 110 132 17 243 230 212 149 181 180 174 177 186 189 188
344 340 336 329 339 344 349 75 75 61 48 11 335 208 88 40 119 129 152 133 119 126 115 104 77 140 172 193 143 165 150 145 198 162 205 124 286 171 186 186 182 180 188 191 196
342 338 333 334 351 2 36 71 322 154 102 354 316 283 314 350 134 85 157 146 111 131 139 64 183 195 200 219 179 187 158 157 144 233 60 326 306 161 184 195 193 189 189 197 207
341 338 341 353 30 50 50 65 106 45 317 122 264 271 260 246 111 122 155 165 166 126 125 128 197 210 270 215 208 188 158 156 124 151 107 350 235 166 184 195 202 194 192 205 205
345 347 360 22 88 56 74 104 212 327 302 314 237 277 329 179 128 172 181 148 125 129 119 169 126 186 202 202 186 198 98 138 127 143 160 154 290 182 219 256 217 205 203 207 202
348 352 13 63 74 24 38 341 302 206 66 13 21 104 143 213 94 138 191 181 121 132 138 161 193 160 196 232 214 199 135 153 145 164 229 275 251 204 181 220 216 201 207 209 209
348 350 15 61 59 62 8 339 126 209 87 343 33 22 106 127 127 164 210 166 135 139 199 165 177 168 205 220 178 173 151 136 135 144 177 194 277 244 191 221 221 212 209 213 212
345 346 350 90 290 7 325 349 265 235 76 23 352 3 299 52 107 108 199 75 72 156 200 263 116 200 247 153 183 134 127 104 119 155 221 179 213 208 191 214 206 209 214 210 211
338 331 275 214 130 326 342 102 253 62 327 8 1 353 92 36 108 129 164 192 226 243 217 291 180 148 161 113 146 170 176 191 201 216 217 162 198 260 237 239 216 196 203 205 208
335 324 292 263 274 293 18 184 71 9 299 14 359 32 56 0 68 105 137 206 214 212 259 280 194 173 175 223 194 192 209 239 266 208 194 173 241 49 311 282 221 208 198 197 205
343 12 54 349 356 140 156 68 128 207 302 336 134 51 43 42 355 120 40 191 274 202 254 212 220 172 182 147 165 171 209 350 248 174 247 200 250 207 19 21 129 200 186 197 203
350 54 31 52 20 49 79 158 246 234 312 126 89 279 24 4 170 106 60 30 303 272 226 119 263 44 140 134 48 219 139 189 223 209 55 275 277 328 351 340 326 194 198 206 206
16 115 358 66 350 42 80 269 275 237 240 63 136 115 74 37 33 56 39 69 14 324 221 148 238 99 172 208 177 152 176 163 284 271 281 256 120 1 323 323 319 241 220 216 208
352 148 150 3 16 47 97 236 332 312 56 99 93 73 58 47 53 106 106 329 346 284 312 16 115 49 26 303 260 274 258 188 243 202 269 310 115 28 357 351 342 335 223 223 222
7 307 342 18 187 180 293 272 267 259 30 116 103 38 45 57 348 356 335 17 18 49 349 181 329 133 134 156 155 111 101 113 17 122 261 276 269 29 47 45 28 4 343 226 197
307 214 98 69 40 146 207 236 207 121 103 70 113 145 144 98 66 283 338 331 360 38 38 155 92 305 289 58 69 160 57 77 222 246 269 254 232 301 31 30 28 22 17 340 187
16 19 355 163 169 137 207 277 200 192 95 183 116 197 169 190 216 240 278 313 79 357 84 16 67 304 301 249 295 117 98 56 313 315 255 340 166 74 7 23 23 27 37 58 68
344 339 351 237 220 198 175 197 213 185 183 189 179 161 168 200 218 248 250 231 347 10 34 8 128 352 292 312 230 168 136 105 90 102 79 224 218 149 1 3 30 37 33 43 28
353 300 277 142 205 193 191 199 242 176 205 231 162 145 200 234 152 90 89 75 39 328 14 4 156 241 274 333 239 252 217 207 129 160 203 210 216 152 55 20 0 30 28 34 30